ONEWEB-0414, 50491

Orbit data source: Space-Track

ONEWEB-0414, 50491 is a payload satellite owned by One Web (NAA) (UK) in LEO that was launched on Mon, 27 Dec 2021 UTC via a SOYUZ-2-1B launch vehicle from the Tyuratam Missile And Space Complex (TTMTR). Payload-class satellites include a variety of spacecraft equipped with specific instruments for various scientific and technological missions. These include communications satellites like Starlink; space stations such as the ISS; scientific satellites like the Hubble; Earth observation satellites from companies like Planet Labs, Umbra, and HawkEye 360; GPS; miniature CubeSats for education and research; and military/defense satellites.

Loading next visibility...
Identifier
50491, 2021-132Y
Orbit
LEO
Country
Flag of UKUK
Related business
Manufacturer
One Web
Mission
Operational Commercial Communications
Bus & Motor
ARROW, Unknown motor
Mass
148 kg wet, ~140 kg dry
Launch date (UTC)
2021-12-27 (4 years ago)
Launch vehicle
SOYUZ-2-1B
Launch site
Tyuratam Missile And Space Complex (TTMTR)
Object type
Payload
Rocket body
Debris
Shape & HBR
Trap Box + 2 Pan, 6.7 m
Radar Cross Section
3.464 m², Large (>1 m²)

Expand to show TLE details & history
Last TLE update: 2 days ago

TLE from 2 days ago
0 ONEWEB-0414
1 50491U 21132Y   26171.43330701  .00000070  00000-0  14463-3 0  9994
2 50491  87.9174 334.7909 0001777  90.0900 270.0436 13.18685615222059
Epoch: 2026-06-20T10:23Z
TLE epoch observation values (Epoch: 2026-06-20T10:23:57.725Z)
Latitude
-0.00001°
Longitude
-89.84762°
Altitude
1,192.644 km
Speed
7.257 km/s
True Right ascension
22h 19m 09s
True Declination
0° 00' 00"
Sunlit
Object was in daylight at epoch
Visualization orbit readout
Latitude
Unknown
Longitude
Unknown
Altitude
Unknown
Speed
Unknown
Apparent Right ascension
Unknown
Apparent Declination
Unknown
Sunlit
N/A
Visualization observer readout
Local Sidereal Time
21:33:35
Azimuth
Unknown
Elevation
Unknown
Doppler factor
Unknown
Orbital elements
Apogee altitude
1,188.196 km
Perigee altitude
1,185.508 km
Semi-major axis
7,564.989 km
Eccentricity
0.00018
Inclination
87.9174°
RAAN
334.7909°
Arg. of periapsis
90.09°
True anomaly
270.02324°
Mean anomaly
270.0436°
Eccentric anomaly
270.03342°
Mean motion
3.29861 °/min
Orbital period
109.14 mins
BSTAR
0.00014463
Loading maneuver chart data...
Computing Atmospheric mass density...
Loading historical data...
Loading historical data...
Loading historical data...
Loading historical data...
Loading historical data...
Loading historical data...
Loading historical data...

Documentation

Showing up to 5 results
|